Location: Marse
(42.1502°N, 110.9866°W)
Time: 20:20:23
(UTC+00:00)

QB50P2 - Pass Details

Date: 04 July 2022
Orbit: 590 x 605 km, 97.9° (Epoch: 11 August)

Event Time Altitude Azimuth Distance (km) Brightness Sun altitude
Rises 08:40:50 0° 14° (NNE) 2,861 ? -22.9°
Reaches altitude 10° 08:43:02 10° 17° (NNE) 1,956 ? -22.7°
Maximum altitude 08:47:16 72° 102° (ESE) 640 ? -22.5°
Enters shadow 08:47:42 65° 146° (SE) 665 ? -22.5°
